Regional Weather Roundup
Issued by NWS State College, PA

Home | Current Version | Previous Version | Text Only | Print | Product List | Glossary Off
Versions: 1 2 3 4 5 6 7 8 9 10 11 12 13 14 15 16 17 18 19 20 21 22 23 24 25 26 27 28 29 30 31 32 33 34 35 36 37 38 39 40 41 42 43 44 45 46 47 48 49 50

427
ASUS41 KCTP 240410
RWRCTP

REGIONAL WEATHER ROUNDUP
NATIONAL WEATHER SERVICE STATE COLLEGE PA
1200 AM EDT FRI MAR 24 2017

Note: "fair" indicates few or no clouds below 12,000 feet with no
significant weather and/or obstructions to visibility.

* = STATION THAT DOES NOT REPORT PRECIPITATION /E.G. RAIN...SNOW...ETC/
    THUNDER OR FOG.

PAZ002>004-007>009-013>016-020>023-029>032-240500-
WESTERN PENNSYLVANIA

CITY           SKY/WX    TMP DP  RH WIND       PRES   REMARKS
ERIE           PTCLDY    43   8  23 S9        30.26S
MEADVILLE      MOCLDY    39   3  22 VRB3      30.25F
FRANKLIN*      CLEAR     37   5  25 SE7       30.29R
NEW CASTLE     FAIR      37   7  28 CALM      30.28R
BEAVER COUNTY  NOT AVBL
BUTLER*        CLEAR     39  12  33 SE6       30.29S
PITTSBURGH INT PTCLDY    42   9  25 SE7       30.27F
PITTSBURGH     CLEAR     41   9  26 SE7       30.28F
INDIANA*       CLEAR     41  10  28 S12G20    30.33F
LATROBE        CLEAR     41  10  28 CALM      30.31S
WASHINGTON CO* CLEAR     30  18  59 CALM      30.29S
$$

PAZ004>006-010>012-017>019-024>028-033>037-041-042-045-046-049>053-240500-
CENTRAL PENNSYLVANIA

CITY           SKY/WX    TMP DP  RH WIND       PRES   REMARKS
BRADFORD       CLOUDY    35   7  31 SE7G17    30.28F
DUBOIS         PTCLDY    35   5  28 SE12      30.29F
CLEARFIELD       N/A    N/A N/A N/A MISG      30.35F
JOHNSTOWN      CLEAR     34  11  38 S10       30.31F
ALTOONA        CLEAR     37  11  34 S9        30.37F
STATE COLLEGE  CLEAR     33   9  35 CALM      30.38F
WILLIAMSPORT   CLEAR     34  11  38 E6        30.45F
SELINSGROVE    CLEAR     26  20  77 N3        30.46F
FT INDIANTOWN  CLEAR     28  16  60 CALM      30.49F
CAPITAL CITY   CLEAR     35  14  42 SE7       30.49F
HARRISBURG     PTCLDY    33  21  61 S5        30.49F
YORK           CLEAR     35  18  49 S5        30.49F
$$

PAZ038>040-043-044-047-048-054-055-060>062-067>071-240500-
EASTERN PENNSYLVANIA

CITY           SKY/WX    TMP DP  RH WIND       PRES   REMARKS
SCRANTON       CLEAR     30  12  47 E5        30.46S
MOUNT POCONO   CLEAR     22   7  52 CALM      30.43S
ALLENTOWN      CLEAR     28  15  58 CALM      30.51F
QUAKERTOWN*    CLEAR     27  19  74 CALM      30.52S
READING        CLEAR     33  15  47 S5        30.51F
LANCASTER      CLEAR     31  18  58 E5        30.51F
COATESVILLE    CLEAR     30  14  51 CALM      30.53F
POTTSTOWN      CLEAR     28  15  58 CALM      30.54F
BLUE BELL      CLEAR     27  21  80 CALM      30.52F
DOYLESTOWN     CLEAR     22  15  75 CALM      30.52F
WILLOW GROVE   NOT AVBL
NORTH PHILA    CLEAR     37  14  38 S6        30.56F
PHILADELPHIA   CLEAR     36  20  52 S7        30.56F
$$




USA.gov is the U.S. government's official web portal to all federal, state and local government web resources and services.